FAG99 SACO-SABE

Flight info

Callsign FAG99
Flight time N/A
Altitude 37000
Route UTRAX1C UTRAX UW24 SNT SNT9R
Aircraft B737/M-SDE2E3FGHIRWXY/LB1

Departure

Time 2026-05-08 01:01
Airport Ingeniero Aeronáutico Ambrosio L.V. Taravella International Airport (SACO)

Arrival

Time N/A
Airport Aeroparque Jorge Newbery (SABE)
Time Latitude Longitude Altitude Speed Heading
2026-05-08 00:46 -31.31612 -64.21169 1615 ft 0 kts 268°
2026-05-08 00:55 -31.31612 -64.21146 1614 ft 4 kts 270°
2026-05-08 00:55 -31.31612 -64.21118 1617 ft 2 kts 262°
2026-05-08 00:55 -31.31608 -64.21105 1619 ft 2 kts 208°
2026-05-08 00:55 -31.31597 -64.21102 1617 ft 2 kts 185°
2026-05-08 00:56 -31.31591 -64.21101 1615 ft 0 kts 184°
2026-05-08 00:57 -31.31592 -64.21101 1615 ft 1 kts 184°
2026-05-08 00:57 -31.31621 -64.21102 1618 ft 9 kts 179°
2026-05-08 00:57 -31.31711 -64.21096 1615 ft 17 kts 160°
2026-05-08 00:57 -31.31840 -64.21028 1614 ft 24 kts 176°
2026-05-08 00:58 -31.32034 -64.21027 1613 ft 31 kts 180°
2026-05-08 00:58 -31.32272 -64.21022 1614 ft 36 kts 179°
2026-05-08 00:58 -31.32435 -64.20957 1612 ft 20 kts 104°
2026-05-08 00:58 -31.32376 -64.20829 1614 ft 19 kts 21°
2026-05-08 00:59 -31.32266 -64.20815 1616 ft 0 kts 359°
2026-05-08 01:00 -31.32254 -64.20815 1617 ft 8 kts 359°
2026-05-08 01:00 -31.31925 -64.20820 1617 ft 86 kts 359°
2026-05-08 01:01 -31.31095 -64.20839 1620 ft 150 kts 358°
2026-05-08 01:01 -31.29907 -64.20839 1842 ft 183 kts
2026-05-08 01:01 -31.28608 -64.20775 2576 ft 197 kts
2026-05-08 01:01 -31.27225 -64.20424 3225 ft 206 kts 34°
2026-05-08 01:02 -31.26377 -64.19116 4030 ft 210 kts 78°
2026-05-08 01:02 -31.26502 -64.17422 4470 ft 220 kts 121°
2026-05-08 01:02 -31.27596 -64.16098 4560 ft 235 kts 150°
2026-05-08 01:02 -31.28822 -64.14790 5357 ft 241 kts 135°
2026-05-08 01:03 -31.29897 -64.13288 6292 ft 242 kts 136°
2026-05-08 01:03 -31.31030 -64.11746 6921 ft 260 kts 137°
2026-05-08 01:03 -31.31839 -64.10658 7510 ft 265 kts 137°
2026-05-08 01:03 -31.33471 -64.08485 8803 ft 270 kts 139°
2026-05-08 01:04 -31.34317 -64.07366 9468 ft 273 kts 139°
2026-05-08 01:04 -31.35593 -64.05690 10359 ft 279 kts 140°
2026-05-08 01:04 -31.36951 -64.03927 10706 ft 305 kts 140°
2026-05-08 01:04 -31.38404 -64.02046 11354 ft 316 kts 140°
2026-05-08 01:05 -31.39866 -64.00143 12234 ft 320 kts 140°
2026-05-08 01:05 -31.41362 -63.98194 13180 ft 323 kts 140°
2026-05-08 01:05 -31.42875 -63.96224 14074 ft 327 kts 140°
2026-05-08 01:05 -31.44412 -63.94227 14900 ft 332 kts 140°
2026-05-08 01:06 -31.45974 -63.92199 15743 ft 337 kts 141°
2026-05-08 01:06 -31.47561 -63.90141 16566 ft 343 kts 141°
2026-05-08 01:06 -31.49174 -63.88049 17377 ft 348 kts 141°
2026-05-08 01:06 -31.50812 -63.85923 18190 ft 354 kts 142°
2026-05-08 01:07 -31.52484 -63.83753 18877 ft 360 kts 142°
2026-05-08 01:07 -31.54175 -63.81555 19561 ft 366 kts 142°
2026-05-08 01:07 -31.55894 -63.79320 20254 ft 371 kts 142°
2026-05-08 01:07 -31.57633 -63.77056 20939 ft 377 kts 142°
2026-05-08 01:08 -31.59400 -63.74755 21607 ft 382 kts 142°
2026-05-08 01:08 -31.61195 -63.72417 22281 ft 387 kts 142°
2026-05-08 01:08 -31.62986 -63.70081 22944 ft 392 kts 143°
2026-05-08 01:08 -31.64826 -63.67681 23586 ft 397 kts 143°
2026-05-08 01:09 -31.66683 -63.65255 24146 ft 402 kts 142°
2026-05-08 01:09 -31.68556 -63.62805 24736 ft 404 kts 142°
2026-05-08 01:09 -31.70441 -63.60338 25323 ft 407 kts 142°
2026-05-08 01:09 -31.72342 -63.57849 25899 ft 410 kts 142°
2026-05-08 01:10 -31.74260 -63.55339 26453 ft 414 kts 142°
2026-05-08 01:10 -31.76189 -63.52810 27009 ft 417 kts 142°
2026-05-08 01:10 -31.78132 -63.50263 27549 ft 420 kts 142°
2026-05-08 01:10 -31.80088 -63.47697 28071 ft 423 kts 142°
2026-05-08 01:11 -31.82062 -63.45105 28591 ft 426 kts 142°
2026-05-08 01:11 -31.84025 -63.42525 29089 ft 430 kts 142°
2026-05-08 01:11 -31.86024 -63.39897 29575 ft 433 kts 142°
2026-05-08 01:11 -31.88038 -63.37250 30044 ft 436 kts 142°
2026-05-08 01:12 -31.90031 -63.34524 30444 ft 441 kts 140°
2026-05-08 01:12 -31.91971 -63.31701 30830 ft 445 kts 138°
2026-05-08 01:12 -31.93896 -63.28819 31205 ft 449 kts 138°
2026-05-08 01:12 -31.95818 -63.25915 31590 ft 450 kts 138°
2026-05-08 01:13 -31.97742 -63.23007 32092 ft 449 kts 138°
2026-05-08 01:13 -31.99665 -63.20110 32615 ft 447 kts 138°
2026-05-08 01:13 -32.01582 -63.17233 33076 ft 446 kts 138°
2026-05-08 01:13 -32.03502 -63.14364 33489 ft 446 kts 138°
2026-05-08 01:14 -32.05434 -63.11484 33885 ft 447 kts 138°
2026-05-08 01:14 -32.07337 -63.08646 34229 ft 447 kts 138°
2026-05-08 01:14 -32.09267 -63.05769 34518 ft 448 kts 138°
2026-05-08 01:14 -32.11204 -63.02879 34778 ft 450 kts 137°
2026-05-08 01:15 -32.13153 -62.99968 35072 ft 451 kts 137°
2026-05-08 01:15 -32.15098 -62.97057 35380 ft 451 kts 137°
2026-05-08 01:15 -32.17044 -62.94143 35672 ft 452 kts 137°
2026-05-08 01:15 -32.18992 -62.91224 35948 ft 453 kts 137°
2026-05-08 01:16 -32.20941 -62.88300 36235 ft 454 kts 137°
2026-05-08 01:16 -32.22893 -62.85369 36526 ft 454 kts 137°
2026-05-08 01:16 -32.24846 -62.82435 36816 ft 454 kts 137°
2026-05-08 01:16 -32.26807 -62.79490 36921 ft 459 kts 137°
2026-05-08 01:17 -32.28799 -62.76500 36931 ft 465 kts 136°
2026-05-08 01:17 -32.32850 -62.70408 36937 ft 477 kts 136°
2026-05-08 01:18 -32.36959 -62.64209 36933 ft 485 kts 136°
2026-05-08 01:18 -32.41145 -62.57875 36925 ft 491 kts 136°
2026-05-08 01:19 -32.45350 -62.51501 36904 ft 490 kts 135°
2026-05-08 01:19 -32.49540 -62.45141 36905 ft 489 kts 135°
2026-05-08 01:20 -32.53725 -62.38784 36906 ft 489 kts 135°
2026-05-08 01:20 -32.57877 -62.32469 36902 ft 489 kts 135°
2026-05-08 01:21 -32.62053 -62.26104 36898 ft 488 kts 135°
2026-05-08 01:21 -32.66223 -62.19737 36900 ft 488 kts 135°
2026-05-08 01:22 -32.70356 -62.13323 36894 ft 490 kts 133°
2026-05-08 01:22 -32.74265 -62.06648 36898 ft 492 kts 131°
2026-05-08 01:23 -32.78094 -61.99953 36888 ft 492 kts 131°
2026-05-08 01:23 -32.81971 -61.93242 36883 ft 492 kts 131°
2026-05-08 01:24 -32.85865 -61.86552 36881 ft 491 kts 131°
2026-05-08 01:24 -32.89763 -61.79856 36879 ft 492 kts 131°
2026-05-08 01:25 -32.93653 -61.73160 36876 ft 492 kts 131°
2026-05-08 01:25 -32.97507 -61.66508 36874 ft 492 kts 131°
2026-05-08 01:26 -33.01366 -61.59837 36859 ft 492 kts 131°
2026-05-08 01:26 -33.05254 -61.53102 36861 ft 493 kts 131°
2026-05-08 01:27 -33.09135 -61.46368 36855 ft 493 kts 130°
2026-05-08 01:27 -33.13023 -61.39609 36856 ft 494 kts 130°
2026-05-08 01:28 -33.16907 -61.32844 36851 ft 494 kts 130°
2026-05-08 01:28 -33.20790 -61.26069 36846 ft 495 kts 130°
2026-05-08 01:29 -33.24677 -61.19273 36843 ft 496 kts 130°
2026-05-08 01:29 -33.28567 -61.12463 36841 ft 496 kts 129°
2026-05-08 01:30 -33.32436 -61.05618 36835 ft 497 kts 129°
2026-05-08 01:30 -33.36279 -60.98786 36829 ft 498 kts 129°
2026-05-08 01:31 -33.40153 -60.91897 36823 ft 499 kts 129°
2026-05-08 01:31 -33.44025 -60.85002 36821 ft 500 kts 128°